Location: Lafig�re
(44.4503°N, 4.0357°E)
Time: 04:03:52
(UTC+00:00)

Explorer 11/Cluster Stage 4 - Pass Details

Date: 30 January 2021
Orbit: 467 x 1257 km, 28.8° (Epoch: 03 March)

Event Time Altitude Azimuth Distance (km) Brightness Sun altitude
Rises 19:11:59 0° 228° (SW) 2,809 10.1 -25.3°
Reaches altitude 10° 19:15:18 10° 200° (SSW) 2,059 8.9 -25.9°
Enters shadow 19:16:59 13° 180° (S) 1,944 8.6 -26.2°
